Voltar ao catálogo

STARLINK-32534

AtivoComunicaçõesVLEO
NORAD 62175·PAYLOAD·🇺🇸 United States

Lançado Nov 30, 2024 de Vandenberg Space Force Base

Loading…

Próximas Passagens (próximas 24 horas)

TLE

AtualizadoSource: CelesTrak SupGP

Época: Sep 15, 2026, 02:17 UTC

1 62175C 24225N   26258.09562500 -.00042977  00000+0 -36022-2 0  2589
2 62175  70.0017  47.0484 0002746 271.0071  41.7367 14.98346715    19

Acompanhe STARLINK-32534 em tempo real com AllMySat

Download on the App Store